Stations météo

Publicité
Lulea/Kallax, Suède (2186): Température de l'air & dewpoint: 05.12.2019 13:00:00 - 11.12.2019 13:00:00 (CET)Lulea/Kallax, Suède (2186): Vitesse du vent & gusts: 05.12.2019 13:00:00 - 11.12.2019 13:00:00 (CET)Lulea/Kallax, Suède (2186): Direction du vent: 05.12.2019 13:00:00 - 11.12.2019 13:00:00 (CET)Lulea/Kallax, Suède (2186): reduced air pressure: 05.12.2019 13:00:00 - 11.12.2019 13:00:00 (CET)Lulea/Kallax, Suède (2186): visibility: 05.12.2019 13:00:00 - 11.12.2019 13:00:00 (CET)Lulea/Kallax, Suède (2186): Quantités de précipitations: 05.12.2019 13:00:00 - 11.12.2019 13:00:00 (CET)
Date & Time tt [°C] td [°C] ff [km/h] ff [knt] fx [km/h] fx [knt] dd ppp [hPa] vv [km] rr [mm]
11.12.2019 13:00:00 1,0 0,0 34 18 - - S - 4,0 -
11.12.2019 12:00:00 0,8 0,2 39 21 58 31 S 990,1 10 0,0
11.12.2019 11:00:00 0,3 -0,3 42 23 65 35 S 990,9 3,5 0,0
11.12.2019 10:00:00 -0,1 -0,5 44 24 61 33 S 992,0 2,5 0,3
11.12.2019 09:00:00 -0,3 -0,7 46 25 65 35 S 993,2 1,7 0,3
11.12.2019 08:00:00 -0,5 -1,1 44 24 65 35 SSE 994,7 3,5 0,7
11.12.2019 07:00:00 -0,7 -1,3 44 24 68 37 SSE 995,7 1,3 1,0
11.12.2019 06:00:00 -0,9 -1,3 46 25 68 37 SSE 997,3 1,5 1,0
11.12.2019 05:00:00 -0,8 -1,4 41 22 58 31 SSE 998,9 0,8 2,0
11.12.2019 04:00:00 -0,8 -1,2 34 18 50 27 S 1001,2 1,7 1,0
11.12.2019 03:00:00 -0,9 -1,5 26 14 40 21 S 1003,1 2,4 0,3
11.12.2019 02:00:00 -4,7 -5,1 13 7 22 12 S 1004,7 10 0,0
11.12.2019 01:00:00 -11,4 -12,7 5 3 7 4 SE 1005,7 10 0,0
11.12.2019 00:00:00 -13,3 -14,9 4 2 4 2 SSE 1006,9 10 0,0
10.12.2019 23:00:00 -14,8 -16,3 0 0 4 2 N 1007,7 10 0,0
10.12.2019 22:00:00 -15,6 -17,3 4 2 7 4 WNW 1008,7 10 0,0
10.12.2019 21:00:00 -15,9 -17,6 5 3 7 4 WNW 1008,8 10 0,0
10.12.2019 20:00:00 -15,4 -17,1 2 1 7 4 - 1009,3 10 0,0
10.12.2019 19:00:00 -15,3 -17,0 5 3 7 4 NW 1009,1 10 0,0
10.12.2019 18:00:00 -15,2 -16,7 4 2 4 2 WNW 1009,4 10 0,0
10.12.2019 17:00:00 -14,6 -16,1 5 3 7 4 NW 1009,6 10 0,0
10.12.2019 16:00:00 -13,2 -14,4 2 1 4 2 - 1009,4 10 0,0
10.12.2019 15:00:00 -12,2 -13,8 2 1 11 6 - 1008,8 10 0,0
10.12.2019 14:00:00 -10,5 -13,0 2 1 7 4 - 1008,5 10 0,0
10.12.2019 13:00:00 -10,9 -12,8 4 2 7 4 WNW 1007,7 10 0,0
10.12.2019 12:00:00 -11,9 -13,5 5 3 7 4 NNW 1007,2 10 0,0
10.12.2019 11:00:00 -11,8 -13,2 8 4 11 6 NW 1006,2 10 0,0
10.12.2019 10:00:00 -11,8 -13,5 2 1 11 6 - 1005,6 10 0,0
10.12.2019 09:00:00 -9,4 -11,4 9 5 22 12 WNW 1004,8 10 0,0
10.12.2019 08:00:00 -9,6 -11,8 13 7 22 12 NNW 1003,6 10 0,0
10.12.2019 07:00:00 -9,4 -11,6 5 3 14 8 NNW 1002,3 10 0,0
10.12.2019 06:00:00 -9,7 -11,5 4 2 18 10 - 1001,3 10 0,0
10.12.2019 05:00:00 -8,6 -10,8 11 6 18 10 NNW 1000,0 10 0,0
10.12.2019 04:00:00 -8,1 -10,0 0 0 7 4 N 998,9 10 0,0
10.12.2019 03:00:00 -9,0 -10,1 4 2 14 8 NW 997,6 10 0,0
10.12.2019 02:00:00 -9,0 -10,5 15 8 25 14 NNW 996,2 10 0,0
10.12.2019 01:00:00 -7,8 -9,9 22 12 29 16 NNW 994,8 10 0,0
10.12.2019 00:00:00 -7,1 -9,6 16 9 25 14 NNW 993,5 10 0,0
09.12.2019 23:00:00 -6,8 -9,2 16 9 25 14 NNW 992,0 10 0,0
09.12.2019 22:00:00 -7,0 -9,1 16 9 25 14 NNW 990,6 10 0,0
09.12.2019 21:00:00 -6,1 -8,1 24 13 29 16 NW 989,2 10 0,0
09.12.2019 20:00:00 -6,0 -7,8 15 8 29 16 NNW 987,9 10 0,0
09.12.2019 19:00:00 -6,1 -7,9 21 11 29 16 NNW 986,5 10 0,0
09.12.2019 18:00:00 -6,4 -8,1 21 11 29 16 NNW 985,1 10 0,0
09.12.2019 17:00:00 -6,6 -8,3 21 11 32 18 NNW 983,9 10 0,0
09.12.2019 16:00:00 -5,8 -7,5 21 11 29 16 NNW 982,2 10 0,0
09.12.2019 15:00:00 -5,5 -7,2 22 12 32 18 NNW 981,0 10 0,0
09.12.2019 14:00:00 -5,0 -6,4 22 12 32 18 NNW 979,8 9 0,0
09.12.2019 13:00:00 -4,8 -5,9 22 12 32 18 NNW 978,6 9 0,0
09.12.2019 12:00:00 -4,6 -5,8 21 11 32 18 NNW 977,4 10 0,0
09.12.2019 11:00:00 -4,7 -5,7 18 10 32 18 NNW 976,5 7 0,0
09.12.2019 10:00:00 -4,8 -6,0 18 10 32 18 N 975,5 10 0,0
09.12.2019 09:00:00 -5,1 -6,3 18 10 32 18 N 974,5 10 0,0
09.12.2019 08:00:00 -5,7 -6,6 16 9 29 16 N 973,6 10 0,0
09.12.2019 07:00:00 -6,3 -7,2 15 8 29 16 N 972,9 10 0,0
09.12.2019 06:00:00 -6,6 -7,5 15 8 25 14 N 972,5 5 0,0
09.12.2019 05:00:00 -6,8 -7,7 11 6 22 12 N 972,6 10 0,0
09.12.2019 04:00:00 -7,0 -7,8 11 6 22 12 N 973,0 10 0,0
09.12.2019 03:00:00 -7,0 -7,8 11 6 22 12 NNE 973,4 10 0,0
09.12.2019 02:00:00 -7,0 -7,8 9 5 18 10 NNE 974,2 10 0,0
09.12.2019 01:00:00 -6,8 -7,6 9 5 14 8 NNE 974,7 10 0,0
09.12.2019 00:00:00 -7,9 -8,7 8 4 14 8 N 975,5 10 0,0
08.12.2019 23:00:00 -8,2 -9,1 5 3 11 6 N 976,4 10 0,0
08.12.2019 22:00:00 -8,6 -9,5 8 4 11 6 N 977,3 10 0,0
08.12.2019 21:00:00 -9,6 -10,7 4 2 7 4 - 978,4 10 0,0
08.12.2019 20:00:00 -10,9 -11,9 0 0 11 6 N 978,3 10 0,0
08.12.2019 19:00:00 -11,1 -12,1 5 3 11 6 N 978,6 10 0,0
08.12.2019 18:00:00 -14,0 -15,6 4 2 7 4 NW 979,4 10 0,0
08.12.2019 17:00:00 -14,5 -16,0 2 1 7 4 - 979,7 10 0,0
08.12.2019 16:00:00 -13,4 -14,7 2 1 4 2 WSW 980,1 10 0,0
08.12.2019 15:00:00 -13,4 -14,7 2 1 4 2 W 980,4 10 0,0
08.12.2019 14:00:00 -13,6 -15,2 2 1 4 2 - 980,5 10 0,0
08.12.2019 13:00:00 -12,6 -13,9 0 0 4 2 N 980,8 10 0,0
08.12.2019 12:00:00 -12,5 -13,9 0 0 4 2 N 980,7 10 0,0
08.12.2019 11:00:00 -11,5 -12,7 2 1 7 4 - 980,7 10 0,0
08.12.2019 10:00:00 -10,9 -11,9 4 2 11 6 W 980,8 10 0,0
08.12.2019 09:00:00 -11,7 -13,1 11 6 14 8 NNW 980,7 10 0,0
08.12.2019 08:00:00 -10,8 -11,8 5 3 11 6 N 980,6 10 0,0
08.12.2019 07:00:00 -11,4 -12,6 5 3 11 6 NW 980,5 10 0,0
08.12.2019 06:00:00 -11,2 -12,4 9 5 14 8 NW 980,4 10 0,0
08.12.2019 05:00:00 -11,7 -12,9 9 5 11 6 NNW 980,1 10 0,0
08.12.2019 04:00:00 -12,4 -13,7 11 6 18 10 NNW 980,0 10 0,0
08.12.2019 03:00:00 -12,1 -13,3 9 5 14 8 N 979,8 10 0,0
08.12.2019 02:00:00 -11,7 -12,9 11 6 14 8 N 979,5 10 0,0
08.12.2019 01:00:00 -11,7 -12,9 5 3 7 4 NNW 979,1 10 0,0
08.12.2019 00:00:00 -11,2 -12,2 2 1 7 4 - 978,9 10 0,0
07.12.2019 23:00:00 -9,1 -10,0 2 1 7 4 - 978,9 10 0,0
07.12.2019 22:00:00 -8,0 -8,7 4 2 7 4 W 979,0 10 0,0
07.12.2019 21:00:00 -8,3 -9,1 5 3 7 4 WSW 979,0 10 0,0
07.12.2019 20:00:00 -8,5 -9,3 4 2 7 4 - 979,2 10 0,0
07.12.2019 19:00:00 -6,8 -7,3 4 2 4 2 SE 979,6 10 0,0
07.12.2019 18:00:00 -7,2 -7,7 0 0 7 4 N 979,9 10 0,0
07.12.2019 17:00:00 -6,8 -7,3 4 2 7 4 SSW 980,0 10 0,0
07.12.2019 16:00:00 -6,8 -7,5 2 1 11 6 - 980,5 10 0,0
07.12.2019 15:00:00 -4,8 -5,5 4 2 11 6 - 980,7 10 0,0
07.12.2019 14:00:00 -5,7 -6,2 5 3 7 4 SSE 980,8 10 0,0
07.12.2019 13:00:00 -5,5 -6,3 2 1 7 4 - 980,8 10 0,0
07.12.2019 12:00:00 -4,4 -4,9 2 1 11 6 - 981,0 10 0,0
07.12.2019 11:00:00 -5,5 -5,9 4 2 11 6 SW 981,6 10 0,0
07.12.2019 10:00:00 -5,4 -5,9 4 2 7 4 - 981,8 10 0,0
07.12.2019 09:00:00 -4,7 -5,7 4 2 14 8 - 981,8 10 0,0
07.12.2019 08:00:00 -4,2 -4,9 8 4 14 8 S 981,6 10 0,0
07.12.2019 07:00:00 -4,7 -5,4 8 4 11 6 S 981,5 10 0,0
07.12.2019 06:00:00 -6,0 -6,4 7 4 11 6 SSE 981,1 45 0,0
07.12.2019 05:00:00 -4,0 -4,7 4 2 7 4 SSW 981,1 10 0,0
07.12.2019 04:00:00 -2,8 -4,1 5 3 14 8 S 980,9 10 0,0
07.12.2019 03:00:00 -2,1 -3,4 9 5 14 8 SSW 981,0 10 0,0
07.12.2019 02:00:00 -2,5 -3,6 11 6 18 10 SSW 980,8 10 0,0
07.12.2019 01:00:00 -2,9 -4,0 9 5 14 8 SSW 980,8 10 0,0
07.12.2019 00:00:00 -3,4 -4,4 8 4 11 6 SSW 980,7 10 0,0
06.12.2019 23:00:00 -3,6 -4,6 5 3 11 6 SW 980,6 10 0,0
06.12.2019 22:00:00 -3,4 -4,4 8 4 14 8 SSW 980,6 10 0,0
06.12.2019 21:00:00 -3,9 -4,7 9 5 14 8 SSW 980,4 10 0,0
06.12.2019 20:00:00 -4,5 -5,5 8 4 18 10 SW 980,3 10 0,0
06.12.2019 19:00:00 -4,3 -5,3 8 4 11 6 SSW 979,9 10 0,0
06.12.2019 18:00:00 -4,7 -5,8 5 3 14 8 SW 980,0 10 0,0
06.12.2019 17:00:00 -6,7 -7,6 2 1 11 6 - 979,8 10 0,0
06.12.2019 16:00:00 -6,6 -7,1 0 0 7 4 N 979,4 10 0,0
06.12.2019 15:00:00 -6,1 -6,8 2 1 7 4 - 979,4 10 0,0
06.12.2019 14:00:00 -3,8 -5,1 4 2 7 4 - 979,7 10 0,0
06.12.2019 13:00:00 -3,9 -5,3 4 2 7 4 - 979,4 10 0,0
06.12.2019 12:00:00 -2,9 -4,5 4 2 14 8 S 979,5 10 0,0
06.12.2019 11:00:00 -2,7 -4,3 5 3 14 8 SSW 979,4 10 0,0
06.12.2019 10:00:00 -2,7 -4,3 8 4 14 8 SW 979,1 10 0,0
06.12.2019 09:00:00 -2,6 -4,2 5 3 14 8 WSW 978,8 10 0,0
06.12.2019 08:00:00 -3,8 -4,8 4 2 11 6 - 978,6 10 0,0
06.12.2019 07:00:00 -1,9 -4,2 4 2 14 8 - 978,6 10 0,0
06.12.2019 06:00:00 -1,8 -4,5 4 2 18 10 - 978,2 10 0,0
06.12.2019 05:00:00 -1,0 -4,0 13 7 25 14 WSW 977,8 10 0,0
06.12.2019 04:00:00 -0,5 -3,9 15 8 25 14 W 977,3 10 0,0
06.12.2019 03:00:00 -0,1 -3,6 15 8 25 14 W 977,3 10 0,0
06.12.2019 02:00:00 0,2 -3,5 18 10 29 16 W 977,3 10 0,0
06.12.2019 01:00:00 0,5 -3,2 11 6 22 12 WSW 977,0 10 0,0
06.12.2019 00:00:00 0,4 -2,8 15 8 22 12 WSW 977,3 10 0,0
05.12.2019 23:00:00 1,1 -2,1 13 7 22 12 WSW 976,8 10 0,0
05.12.2019 22:00:00 0,8 -1,3 9 5 22 12 SW 976,5 10 0,0
05.12.2019 21:00:00 1,1 -1,1 11 6 22 12 SW 976,7 10 0,0
05.12.2019 20:00:00 0,7 -0,9 13 7 22 12 S 976,4 10 0,0
05.12.2019 19:00:00 0,8 -0,8 18 10 25 14 S 976,8 10 0,0
05.12.2019 18:00:00 0,9 -0,6 21 11 32 18 S 977,3 10 0,0
05.12.2019 17:00:00 1,0 -0,6 18 10 29 16 S 977,5 10 0,0
05.12.2019 16:00:00 1,2 -0,3 21 11 40 21 S 978,7 10 0,0
05.12.2019 15:00:00 1,2 -0,4 18 10 25 14 S 979,1 10 0,0
05.12.2019 14:00:00 1,1 -0,5 13 7 18 10 S 980,0 10 0,0
05.12.2019 13:00:00 1,8 -1,1 13 7 18 10 S 981,0 10 0,0

tt = Température de l'air
td = dewpoint
ff = Vitesse du vent
fx = gusts
dd = Direction du vent
ppp = reduced air pressure
vv = visibility
rr = Quantités de précipitations

stations d'obs. à proximité